This is the latest recevied weather packets stored in our database for station/object W0VI. If no packets are shown the sender has not sent any weather packets the latest 10 day(s).
| Time | Temp. | Humidity | Pressure | Rain* | Wind** | Luminosity | Snow |
|---|---|---|---|---|---|---|---|
| 1787429244 | 25° C | 44% | 1019.5 hPa | 0 mm | - | 476 W/m² | - |
| 1787428940 | 25° C | 44% | 1019.7 hPa | 0 mm | - | 484 W/m² | - |
| 1787428635 | 25° C | 45% | 1019.7 hPa | 0 mm | - | 508 W/m² | - |
| 1787428330 | 25° C | 43% | 1019.7 hPa | 0 mm | - | 502 W/m² | - |
| 1787428025 | 25° C | 43% | 1020 hPa | 0 mm | - | 531 W/m² | - |
| 1787427720 | 25° C | 43% | 1020 hPa | 0 mm | - | 524 W/m² | - |
| 1787427416 | 25° C | 48% | 1020 hPa | 0 mm | - | 533 W/m² | - |
| 1787427112 | 25° C | 44% | 1020 hPa | 0 mm | - | 524 W/m² | - |
| 1787426807 | 25° C | 47% | 1020 hPa | 0 mm | - | 536 W/m² | - |
| 1787426503 | 25° C | 48% | 1020 hPa | 0 mm | - | 551 W/m² | - |
| 1787426199 | 24.44° C | 49% | 1020 hPa | 0 mm | - | 527 W/m² | - |
| 1787425895 | 25° C | 50% | 1020.2 hPa | 0 mm | - | 547 W/m² | - |
| 1787425592 | 25° C | 51% | 1020.2 hPa | 0 mm | - | 547 W/m² | - |
| 1787425286 | 24.44° C | 49% | 1020.2 hPa | 0 mm | - | 560 W/m² | - |
| 1787424985 | 24.44° C | 51% | 1020.3 hPa | 0 mm | - | 552 W/m² | - |
| 1787424680 | 24.44° C | 50% | 1020 hPa | 0 mm | - | 569 W/m² | - |
| 1787424375 | 24.44° C | 51% | 1020.3 hPa | 0 mm | - | 576 W/m² | - |
| 1787424070 | 23.89° C | 54% | 1020.3 hPa | 0 mm | - | 596 W/m² | - |
| 1787423766 | 23.89° C | 54% | 1020.4 hPa | 0 mm | - | 204 W/m² | - |
| 1787423463 | 23.89° C | 54% | 1020.4 hPa | 0 mm | - | 145 W/m² | - |
| 1787423158 | 23.89° C | 54% | 1020.4 hPa | 0 mm | - | 644 W/m² | - |
| 1787422854 | 24.44° C | 52% | 1020.4 hPa | 0 mm | - | 167 W/m² | - |
| 1787422550 | 24.44° C | 53% | 1020.4 hPa | 0 mm | - | 585 W/m² | - |
| 1787422250 | 23.89° C | 52% | 1020.5 hPa | 0 mm | - | 586 W/m² | - |
| 1787421947 | 23.89° C | 54% | 1020.3 hPa | 0 mm | - | 613 W/m² | - |
* Rain latest hour (hover to see other rain measurements)
** Current wind speed in m/s (hover to see current wind gust speed)